Time,TemperatureF,DewpointF,PressureIn,WindDirection,WindDirectionDegrees,WindSpeedMPH,WindSpeedGustMPH,Humidity,HourlyPrecipIn,Conditions,Clouds,dailyrainin,SoftwareType,DateUTC
2013-01-29 20:24:00,65.3,60.0,29.72,South,189,13.0,13.0,83,0.00,,,0.00,Wunderground v.1.15,2013-01-30 01:24:00,
2013-01-29 20:29:00,65.4,60.1,29.72,WSW,246,10.0,23.0,83,0.00,,,0.00,Wunderground v.1.15,2013-01-30 01:29:00,
2013-01-29 20:34:00,65.5,60.2,29.72,SW,228,13.0,14.0,83,0.00,,,0.00,Wunderground v.1.15,2013-01-30 01:34:00,
2013-01-29 20:39:00,65.6,60.3,29.71,SW,217,14.0,23.0,83,0.00,,,0.00,Wunderground v.1.15,2013-01-30 01:39:00,
2013-01-29 20:40:00,65.6,60.3,29.71,SSW,200,7.0,23.0,83,0.00,,,0.00,Wunderground v.1.15,2013-01-30 01:40:00,
2013-01-29 20:44:00,65.7,60.4,29.71,SSE,167,6.0,14.0,83,0.00,,,0.00,Wunderground v.1.15,2013-01-30 01:44:00,
2013-01-29 20:45:00,65.7,60.4,29.71,SSW,200,5.0,14.0,83,0.00,,,0.00,Wunderground v.1.15,2013-01-30 01:45:00,
2013-01-29 20:50:00,65.8,60.2,29.70,South,182,12.0,26.0,82,0.00,,,0.00,Wunderground v.1.15,2013-01-30 01:50:00,
2013-01-29 20:55:00,65.8,60.2,29.69,South,188,15.0,15.0,82,0.00,,,0.00,Wunderground v.1.15,2013-01-30 01:55:00,
2013-01-29 21:00:00,65.7,60.1,29.69,SSW,210,4.0,10.0,82,0.00,,,0.00,Wunderground v.1.15,2013-01-30 02:00:00,
2013-01-29 21:05:00,65.7,60.4,29.69,SW,228,18.0,25.0,83,0.00,,,0.00,Wunderground v.1.15,2013-01-30 02:05:00,
2013-01-29 21:10:00,65.7,60.1,29.69,SSW,205,12.0,15.0,82,0.00,,,0.00,Wunderground v.1.15,2013-01-30 02:10:00,
2013-01-29 21:15:00,65.7,60.4,29.69,SSW,195,7.0,21.0,83,0.00,,,0.00,Wunderground v.1.15,2013-01-30 02:15:00,
2013-01-29 21:16:00,65.7,60.4,29.69,SSW,213,7.0,21.0,83,0.00,,,0.00,Wunderground v.1.15,2013-01-30 02:16:00,
2013-01-29 21:20:00,65.7,60.4,29.68,SW,218,14.0,18.0,83,0.00,,,0.00,Wunderground v.1.15,2013-01-30 02:20:00,
2013-01-29 21:21:00,65.7,60.4,29.68,SSW,195,12.0,18.0,83,0.00,,,0.00,Wunderground v.1.15,2013-01-30 02:21:00,
2013-01-29 21:25:00,65.6,60.0,29.68,South,170,5.0,19.0,82,0.00,,,0.00,Wunderground v.1.15,2013-01-30 02:25:00,
2013-01-29 21:26:00,65.6,60.3,29.69,SSW,200,8.0,19.0,83,0.00,,,0.00,Wunderground v.1.15,2013-01-30 02:26:00,
2013-01-29 21:30:00,65.5,60.2,29.68,SW,215,13.0,15.0,83,0.00,,,0.00,Wunderground v.1.15,2013-01-30 02:30:00,
2013-01-29 21:31:00,65.5,60.2,29.68,SSW,195,21.0,21.0,83,0.00,,,0.00,Wunderground v.1.15,2013-01-30 02:31:00,
2013-01-29 21:32:00,65.5,60.2,29.67,WSW,251,12.0,23.0,83,0.00,,,0.00,Wunderground v.1.15,2013-01-30 02:32:00,
2013-01-29 21:35:00,65.5,60.2,29.67,South,190,6.0,23.0,83,0.00,,,0.00,Wunderground v.1.15,2013-01-30 02:35:00,
2013-01-29 21:36:00,65.5,60.2,29.67,SSE,167,3.0,23.0,83,0.00,,,0.00,Wunderground v.1.15,2013-01-30 02:36:00,
2013-01-29 21:37:00,65.5,60.2,29.67,SSW,205,6.0,23.0,83,0.00,,,0.00,Wunderground v.1.15,2013-01-30 02:37:00,
2013-01-29 21:40:00,65.4,60.1,29.66,SSE,158,18.0,18.0,83,0.00,,,0.00,Wunderground v.1.15,2013-01-30 02:40:00,
2013-01-29 21:41:00,65.4,60.1,29.66,SSW,195,17.0,19.0,83,0.00,,,0.00,Wunderground v.1.15,2013-01-30 02:41:00,
2013-01-29 21:42:00,65.4,60.1,29.66,SSW,200,15.0,19.0,83,0.00,,,0.00,Wunderground v.1.15,2013-01-30 02:42:00,
2013-01-29 21:46:00,65.4,60.1,29.66,SSW,213,17.0,19.0,83,0.00,,,0.00,Wunderground v.1.15,2013-01-30 02:46:00,
2013-01-29 21:47:00,65.4,60.1,29.66,SSW,195,16.0,19.0,83,0.00,,,0.00,Wunderground v.1.15,2013-01-30 02:47:00,
2013-01-29 21:51:00,65.4,60.1,29.65,South,176,10.0,14.0,83,0.00,,,0.00,Wunderground v.1.15,2013-01-30 02:51:00,
2013-01-29 21:52:00,65.4,60.1,29.65,SSW,195,8.0,18.0,83,0.00,,,0.00,Wunderground v.1.15,2013-01-30 02:52:00,
2013-01-29 21:56:00,65.4,60.1,29.64,SSW,200,6.0,22.0,83,0.00,,,0.00,Wunderground v.1.15,2013-01-30 02:56:00,
2013-01-29 21:58:00,65.4,60.1,29.64,SW,214,6.0,22.0,83,0.00,,,0.00,Wunderground v.1.15,2013-01-30 02:58:00,
2013-01-29 22:01:00,65.4,60.1,29.64,South,186,14.0,24.0,83,0.00,,,0.00,Wunderground v.1.15,2013-01-30 03:01:00,
2013-01-29 22:02:00,65.4,60.1,29.63,South,181,6.0,24.0,83,0.00,,,0.00,Wunderground v.1.15,2013-01-30 03:02:00,
2013-01-29 22:03:00,65.4,60.1,29.64,South,170,14.0,24.0,83,0.00,,,0.00,Wunderground v.1.15,2013-01-30 03:03:00,
2013-01-29 22:06:00,65.3,60.0,29.63,SSW,200,7.0,24.0,83,0.00,,,0.00,Wunderground v.1.15,2013-01-30 03:06:00,
2013-01-29 22:07:00,65.3,60.0,29.63,SSE,155,7.0,24.0,83,0.00,,,0.00,Wunderground v.1.15,2013-01-30 03:07:00,
2013-01-29 22:08:00,65.3,60.0,29.63,SSW,195,2.0,24.0,83,0.00,,,0.00,Wunderground v.1.15,2013-01-30 03:08:00,
2013-01-29 22:11:00,65.3,60.0,29.63,SSE,167,10.0,26.0,83,0.00,,,0.00,Wunderground v.1.15,2013-01-30 03:11:00,
2013-01-29 22:12:00,65.2,59.9,29.62,SSE,167,15.0,26.0,83,0.00,,,0.00,Wunderground v.1.15,2013-01-30 03:12:00,
2013-01-29 22:13:00,65.3,60.0,29.62,SSE,155,11.0,26.0,83,0.00,,,0.00,Wunderground v.1.15,2013-01-30 03:13:00,
2013-01-29 22:16:00,65.3,60.3,29.62,WSW,238,12.0,26.0,84,0.00,,,0.00,Wunderground v.1.15,2013-01-30 03:16:00,
2013-01-29 22:17:00,65.3,60.0,29.62,South,187,16.0,26.0,83,0.00,,,0.00,Wunderground v.1.15,2013-01-30 03:17:00,
2013-01-29 22:18:00,65.3,60.3,29.62,SW,232,5.0,26.0,84,0.00,,,0.00,Wunderground v.1.15,2013-01-30 03:18:00,
2013-01-29 22:21:00,65.3,60.3,29.61,South,170,24.0,24.0,84,0.00,,,0.00,Wunderground v.1.15,2013-01-30 03:21:00,
2013-01-29 22:22:00,65.2,60.2,29.61,South,169,15.0,24.0,84,0.00,,,0.00,Wunderground v.1.15,2013-01-30 03:22:00,
2013-01-29 22:23:00,65.2,60.2,29.61,SSW,195,6.0,24.0,84,0.00,,,0.00,Wunderground v.1.15,2013-01-30 03:23:00,
2013-01-29 22:26:00,65.2,60.2,29.61,SSE,164,12.0,24.0,84,0.00,,,0.00,Wunderground v.1.15,2013-01-30 03:26:00,
2013-01-29 22:27:00,65.2,60.2,29.61,South,186,12.0,24.0,84,0.00,,,0.00,Wunderground v.1.15,2013-01-30 03:27:00,
2013-01-29 22:28:00,65.1,60.1,29.61,SSW,200,8.0,24.0,84,0.00,,,0.00,Wunderground v.1.15,2013-01-30 03:28:00,
2013-01-29 22:31:00,65.1,60.1,29.60,SSE,166,18.0,20.0,84,0.00,,,0.00,Wunderground v.1.15,2013-01-30 03:31:00,
2013-01-29 22:32:00,65.1,60.1,29.60,SSE,153,6.0,20.0,84,0.00,,,0.00,Wunderground v.1.15,2013-01-30 03:32:00,
2013-01-29 22:33:00,65.0,60.0,29.60,SSW,200,16.0,20.0,84,0.00,,,0.00,Wunderground v.1.15,2013-01-30 03:33:00,
2013-01-29 22:37:00,65.0,60.0,29.60,SSE,157,11.0,26.0,84,0.00,,,0.00,Wunderground v.1.15,2013-01-30 03:37:00,
2013-01-29 22:38:00,65.0,60.0,29.60,SSE,148,7.0,26.0,84,0.00,,,0.00,Wunderground v.1.15,2013-01-30 03:38:00,
2013-01-29 22:42:00,65.1,60.1,29.59,South,184,6.0,25.0,84,0.00,,,0.00,Wunderground v.1.15,2013-01-30 03:42:00,
2013-01-29 22:43:00,65.0,60.0,29.59,SSE,159,11.0,25.0,84,0.00,,,0.00,Wunderground v.1.15,2013-01-30 03:43:00,
2013-01-29 22:44:00,65.0,60.0,29.59,SSW,195,12.0,25.0,84,0.00,,,0.00,Wunderground v.1.15,2013-01-30 03:44:00,
2013-01-29 22:47:00,65.1,60.1,29.59,SSW,195,6.0,25.0,84,0.00,,,0.00,Wunderground v.1.15,2013-01-30 03:47:00,
2013-01-29 22:48:00,65.1,60.1,29.59,South,173,18.0,25.0,84,0.00,,,0.00,Wunderground v.1.15,2013-01-30 03:48:00,
2013-01-29 22:50:00,65.1,60.1,29.59,SSE,165,16.0,16.0,84,0.00,,,0.00,Wunderground v.1.15,2013-01-30 03:50:00,
2013-01-29 22:52:00,65.2,60.2,29.59,South,171,13.0,18.0,84,0.00,,,0.00,Wunderground v.1.15,2013-01-30 03:52:00,
2013-01-29 22:53:00,65.2,60.2,29.59,SSE,164,14.0,18.0,84,0.00,,,0.00,Wunderground v.1.15,2013-01-30 03:53:00,
2013-01-29 22:55:00,65.2,60.2,29.59,SE,138,13.0,24.0,84,0.00,,,0.00,Wunderground v.1.15,2013-01-30 03:55:00,
2013-01-29 22:57:00,65.4,60.4,29.59,SSW,210,9.0,28.0,84,0.00,,,0.00,Wunderground v.1.15,2013-01-30 03:57:00,
2013-01-29 22:58:00,65.4,60.4,29.59,South,188,12.0,28.0,84,0.00,,,0.00,Wunderground v.1.15,2013-01-30 03:58:00,
2013-01-29 23:00:00,65.6,60.6,29.59,South,190,14.0,14.0,84,0.00,,,0.00,Wunderground v.1.15,2013-01-30 04:00:00,
2013-01-29 23:02:00,65.6,60.6,29.58,SSE,162,14.0,23.0,84,0.00,,,0.00,Wunderground v.1.15,2013-01-30 04:02:00,
2013-01-29 23:03:00,65.7,60.7,29.58,SW,214,13.0,24.0,84,0.00,,,0.00,Wunderground v.1.15,2013-01-30 04:03:00,
2013-01-29 23:05:00,65.8,60.8,29.58,South,191,11.0,24.0,84,0.00,,,0.00,Wunderground v.1.15,2013-01-30 04:05:00,
2013-01-29 23:07:00,65.8,60.8,29.58,SSE,155,14.0,24.0,84,0.00,,,0.00,Wunderground v.1.15,2013-01-30 04:07:00,
2013-01-29 23:08:00,65.9,60.9,29.58,SSE,166,15.0,24.0,84,0.00,,,0.00,Wunderground v.1.15,2013-01-30 04:08:00,
2013-01-29 23:10:00,65.9,60.9,29.58,SE,128,5.0,14.0,84,0.00,,,0.00,Wunderground v.1.15,2013-01-30 04:10:00,
2013-01-29 23:13:00,66.1,61.1,29.58,SSW,213,22.0,26.0,84,0.00,,,0.00,Wunderground v.1.15,2013-01-30 04:13:00,
2013-01-29 23:14:00,66.1,61.1,29.58,SE,145,11.0,26.0,84,0.00,,,0.00,Wunderground v.1.15,2013-01-30 04:14:00,
2013-01-29 23:15:00,66.2,60.9,29.58,South,188,7.0,26.0,83,0.00,,,0.00,Wunderground v.1.15,2013-01-30 04:15:00,
2013-01-29 23:18:00,66.2,60.9,29.57,SSE,155,16.0,26.0,83,0.00,,,0.00,Wunderground v.1.15,2013-01-30 04:18:00,
2013-01-29 23:19:00,66.3,61.0,29.57,SE,136,11.0,26.0,83,0.00,,,0.00,Wunderground v.1.15,2013-01-30 04:19:00,
2013-01-29 23:20:00,66.3,61.0,29.58,SSE,159,28.0,28.0,83,0.00,,,0.00,Wunderground v.1.15,2013-01-30 04:20:00,
2013-01-29 23:23:00,66.3,61.0,29.58,South,185,10.0,28.0,83,0.00,,,0.00,Wunderground v.1.15,2013-01-30 04:23:00,
2013-01-29 23:24:00,66.3,61.0,29.58,SW,227,2.0,28.0,83,0.00,,,0.00,Wunderground v.1.15,2013-01-30 04:24:00,
2013-01-29 23:26:00,66.3,61.0,29.58,South,172,3.0,28.0,83,0.00,,,0.00,Wunderground v.1.15,2013-01-30 04:26:00,
2013-01-29 23:28:00,66.2,60.9,29.57,SSW,195,7.0,28.0,83,0.00,,,0.00,Wunderground v.1.15,2013-01-30 04:28:00,
2013-01-29 23:29:00,66.2,60.9,29.58,SSW,200,10.0,28.0,83,0.00,,,0.00,Wunderground v.1.15,2013-01-30 04:29:00,
2013-01-29 23:31:00,66.2,60.9,29.57,South,181,16.0,16.0,83,0.00,,,0.00,Wunderground v.1.15,2013-01-30 04:31:00,
2013-01-29 23:33:00,66.1,60.8,29.57,SSW,195,15.0,22.0,83,0.00,,,0.00,Wunderground v.1.15,2013-01-30 04:33:00,
2013-01-29 23:34:00,66.1,60.8,29.57,SSE,150,13.0,22.0,83,0.00,,,0.00,Wunderground v.1.15,2013-01-30 04:34:00,
2013-01-29 23:35:00,66.1,60.8,29.57,SSE,159,19.0,24.0,83,0.00,,,0.00,Wunderground v.1.15,2013-01-30 04:35:00,
2013-01-29 23:36:00,66.1,60.8,29.57,South,179,5.0,24.0,83,0.00,,,0.00,Wunderground v.1.15,2013-01-30 04:36:00,
2013-01-29 23:38:00,66.1,60.8,29.57,South,175,18.0,24.0,83,0.00,,,0.00,Wunderground v.1.15,2013-01-30 04:38:00,
2013-01-29 23:39:00,66.1,60.8,29.56,SSE,157,18.0,24.0,83,0.00,,,0.00,Wunderground v.1.15,2013-01-30 04:39:00,
2013-01-29 23:40:00,66.1,60.8,29.56,SW,215,12.0,16.0,83,0.00,,,0.00,Wunderground v.1.15,2013-01-30 04:40:00,
2013-01-29 23:41:00,66.1,60.8,29.56,South,185,10.0,18.0,83,0.00,,,0.00,Wunderground v.1.15,2013-01-30 04:41:00,
2013-01-29 23:43:00,66.1,60.8,29.56,South,180,10.0,19.0,83,0.00,,,0.00,Wunderground v.1.15,2013-01-30 04:43:00,
2013-01-29 23:44:00,66.1,60.8,29.56,SE,137,10.0,19.0,83,0.00,,,0.00,Wunderground v.1.15,2013-01-30 04:44:00,
2013-01-29 23:45:00,66.1,60.8,29.56,SSW,209,9.0,21.0,83,0.00,,,0.00,Wunderground v.1.15,2013-01-30 04:45:00,
2013-01-29 23:46:00,66.1,60.8,29.56,South,186,16.0,22.0,83,0.00,,,0.00,Wunderground v.1.15,2013-01-30 04:46:00,
2013-01-29 23:49:00,66.1,60.8,29.56,SSW,195,17.0,22.0,83,0.00,,,0.00,Wunderground v.1.15,2013-01-30 04:49:00,
2013-01-29 23:50:00,66.1,60.8,29.56,SSE,150,15.0,15.0,83,0.00,,,0.00,Wunderground v.1.15,2013-01-30 04:50:00,
2013-01-29 23:51:00,66.1,60.8,29.56,SSE,161,13.0,19.0,83,0.00,,,0.00,Wunderground v.1.15,2013-01-30 04:51:00,
2013-01-29 23:54:00,66.1,60.8,29.56,South,170,18.0,19.0,83,0.00,,,0.00,Wunderground v.1.15,2013-01-30 04:54:00,
2013-01-29 23:55:00,66.1,60.8,29.55,South,191,18.0,19.0,83,0.00,,,0.00,Wunderground v.1.15,2013-01-30 04:55:00,
2013-01-29 23:56:00,66.1,60.8,29.55,SW,214,23.0,23.0,83,0.00,,,0.00,Wunderground v.1.15,2013-01-30 04:56:00,
2013-01-29 23:59:00,66.2,60.9,29.55,South,174,16.0,26.0,83,0.00,,,0.00,Wunderground v.1.15,2013-01-30 04:59:00,